| time (UTC) | temp F | wind direction | speed MPH | gust MPH | rain 1hr in | rain 24hr in | rain mn in | humidity % | barometer mb |
| 20260507231115 | 50 | 9 | 2.0 | 4.0 | 0.00 | 0.00 | 0.00 | 49 | 978.1 |
| 20260507230614 | 49 | 316 | 6.0 | 8.0 | 0.00 | 0.00 | 0.00 | 49 | 978.0 |
| 20260507225553 | 49 | 352 | 6.0 | 9.0 | 0.00 | 0.00 | 0.00 | 49 | 978.1 |
| 20260507224532 | 49 | 317 | 3.0 | 4.0 | 0.00 | 0.00 | 0.00 | 51 | 978.1 |
| 20260507224031 | 49 | 338 | 6.0 | 8.0 | 0.00 | 0.00 | 0.00 | 52 | 978.1 |
| 20260507223531 | 49 | 322 | 3.0 | 4.0 | 0.00 | 0.00 | 0.00 | 54 | 978.2 |
| 20260507223031 | 49 | 308 | 3.0 | 4.0 | 0.00 | 0.00 | 0.00 | 53 | 978.3 |
| 20260507222009 | 50 | 328 | 6.0 | 8.0 | 0.00 | 0.00 | 0.00 | 50 | 978.2 |
| 20260507221509 | 49 | 350 | 4.0 | 6.0 | 0.00 | 0.00 | 0.00 | 52 | 978.2 |
| 20260507220447 | 48 | 338 | 4.0 | 7.0 | 0.00 | 0.00 | 0.00 | 55 | 978.3 |
| 20260507215947 | 48 | 303 | 4.0 | 6.0 | 0.00 | 0.00 | 0.00 | 55 | 978.3 |
| 20260507214926 | 47 | 322 | 5.0 | 8.0 | 0.00 | 0.00 | 0.00 | 57 | 978.4 |
| 20260507214425 | 47 | 328 | 6.0 | 8.0 | 0.00 | 0.00 | 0.00 | 58 | 978.4 |
| 20260507213924 | 47 | 342 | 4.0 | 7.0 | 0.00 | 0.00 | 0.00 | 57 | 978.3 |
| 20260507212902 | 47 | 0 | 4.0 | 8.0 | 0.00 | 0.00 | 0.00 | 57 | 978.2 |
| 20260507212402 | 47 | 21 | 5.0 | 7.0 | 0.00 | 0.00 | 0.00 | 56 | 978.2 |
| 20260507210259 | 48 | 354 | 6.0 | 9.0 | 0.00 | 0.00 | 0.00 | 55 | 978.1 |
| 20260507205758 | 48 | 340 | 6.0 | 8.0 | 0.00 | 0.00 | 0.00 | 55 | 978.0 |
| 20260507205257 | 48 | 348 | 7.0 | 9.0 | 0.00 | 0.00 | 0.00 | 55 | 978.0 |
| 20260507204757 | 48 | 8 | 4.0 | 9.0 | 0.00 | 0.00 | 0.00 | 57 | 977.9 |
| 20260507204257 | 48 | 19 | 3.0 | 4.0 | 0.00 | 0.00 | 0.00 | 56 | 977.9 |
| 20260507203757 | 48 | 315 | 3.0 | 4.0 | 0.00 | 0.00 | 0.00 | 57 | 977.9 |
| 20260507203257 | 48 | 347 | 2.0 | 4.0 | 0.00 | 0.00 | 0.00 | 56 | 977.9 |
| 20260507202757 | 48 | 319 | 4.0 | 6.0 | 0.00 | 0.00 | 0.00 | 55 | 977.9 |
| 20260507202256 | 48 | 341 | 4.0 | 7.0 | 0.00 | 0.00 | 0.00 | 57 | 977.9 |
| 20260507201756 | 48 | 300 | 4.0 | 7.0 | 0.00 | 0.00 | 0.00 | 58 | 977.9 |
| 20260507201256 | 48 | 342 | 5.0 | 8.0 | 0.00 | 0.00 | 0.00 | 56 | 977.9 |
| 20260507195713 | 49 | 302 | 5.0 | 7.0 | 0.00 | 0.00 | 0.00 | 56 | 977.8 |
| 20260507195213 | 50 | 346 | 6.0 | 12.0 | 0.00 | 0.00 | 0.00 | 47 | 977.9 |
| 20260507194151 | 51 | 344 | 4.0 | 7.0 | 0.00 | 0.00 | 0.00 | 45 | 977.8 |
| 20260507193651 | 51 | 287 | 2.0 | 5.0 | 0.00 | 0.00 | 0.00 | 44 | 977.7 |
| 20260507193151 | 51 | 300 | 6.0 | 10.0 | 0.00 | 0.00 | 0.00 | 44 | 977.7 |
| 20260507192651 | 51 | 323 | 4.0 | 5.0 | 0.00 | 0.00 | 0.00 | 43 | 977.7 |
| 20260507192150 | 51 | 321 | 3.0 | 5.0 | 0.00 | 0.00 | 0.00 | 43 | 977.8 |
| 20260507191129 | 51 | 333 | 4.0 | 6.0 | 0.00 | 0.00 | 0.00 | 43 | 977.9 |
| 20260507190629 | 51 | 319 | 4.0 | 7.0 | 0.00 | 0.00 | 0.00 | 42 | 977.9 |
| 20260507190129 | 51 | 301 | 3.0 | 8.0 | 0.00 | 0.00 | 0.00 | 43 | 977.9 |
| 20260507185628 | 51 | 256 | 7.0 | 9.0 | 0.00 | 0.00 | 0.00 | 42 | 977.9 |
| 20260507185128 | 51 | 292 | 6.0 | 8.0 | 0.00 | 0.00 | 0.00 | 41 | 977.9 |
| 20260507184628 | 51 | 304 | 4.0 | 6.0 | 0.00 | 0.00 | 0.00 | 42 | 977.9 |
| 20260507184128 | 51 | 277 | 7.0 | 10.0 | 0.00 | 0.00 | 0.00 | 41 | 977.9 |
| 20260507183107 | 51 | 253 | 2.0 | 3.0 | 0.00 | 0.00 | 0.00 | 43 | 977.8 |
| 20260507182607 | 51 | 337 | 3.0 | 5.0 | 0.00 | 0.00 | 0.00 | 43 | 977.8 |
| 20260507182107 | 51 | 314 | 6.0 | 10.0 | 0.00 | 0.00 | 0.00 | 43 | 977.8 |
| 20260507181044 | 52 | 347 | 5.0 | 8.0 | 0.00 | 0.00 | 0.00 | 43 | 977.7 |
| 20260507180543 | 52 | 350 | 6.0 | 8.0 | 0.00 | 0.00 | 0.00 | 43 | 977.8 |
| 20260507180043 | 52 | 0 | 5.0 | 10.0 | 0.00 | 0.00 | 0.00 | 44 | 977.8 |
| 20260507175543 | 52 | 8 | 5.0 | 9.0 | 0.00 | 0.00 | 0.00 | 45 | 977.8 |
| 20260507175043 | 52 | 353 | 6.0 | 9.0 | 0.00 | 0.00 | 0.00 | 44 | 978.0 |
| 20260507174543 | 51 | 349 | 7.0 | 10.0 | 0.00 | 0.00 | 0.00 | 43 | 978.0 |
| 20260507174043 | 51 | 324 | 7.0 | 9.0 | 0.00 | 0.00 | 0.00 | 43 | 978.1 |
| 20260507173542 | 51 | 349 | 9.0 | 12.0 | 0.00 | 0.00 | 0.00 | 42 | 978.2 |
| 20260507173042 | 51 | 330 | 4.0 | 6.0 | 0.00 | 0.00 | 0.00 | 44 | 978.2 |
| 20260507172542 | 51 | 30 | 3.0 | 5.0 | 0.00 | 0.00 | 0.00 | 43 | 978.2 |
| 20260507172042 | 51 | 353 | 3.0 | 6.0 | 0.00 | 0.00 | 0.00 | 44 | 978.4 |
| 20260507171542 | 51 | 333 | 5.0 | 9.0 | 0.00 | 0.00 | 0.00 | 45 | 978.4 |
| 20260507171042 | 50 | 339 | 7.0 | 10.0 | 0.00 | 0.00 | 0.00 | 45 | 978.4 |
| 20260507170541 | 51 | 342 | 5.0 | 8.0 | 0.00 | 0.00 | 0.00 | 45 | 978.4 |
| 20260507170041 | 51 | 340 | 8.0 | 10.0 | 0.00 | 0.00 | 0.00 | 44 | 978.5 |
| 20260507165541 | 51 | 346 | 7.0 | 10.0 | 0.00 | 0.00 | 0.00 | 45 | 978.5 |
| 20260507165041 | 51 | 332 | 6.0 | 10.0 | 0.00 | 0.00 | 0.00 | 46 | 978.5 |
| 20260507164541 | 51 | 331 | 6.0 | 9.0 | 0.00 | 0.00 | 0.00 | 44 | 978.7 |
| 20260507164040 | 50 | 341 | 2.0 | 5.0 | 0.00 | 0.00 | 0.00 | 47 | 978.7 |
| 20260507163540 | 50 | 351 | 4.0 | 7.0 | 0.00 | 0.00 | 0.00 | 45 | 978.8 |
| 20260507163040 | 50 | 332 | 5.0 | 9.0 | 0.00 | 0.00 | 0.00 | 46 | 978.8 |
| 20260507162540 | 50 | 255 | 4.0 | 7.0 | 0.00 | 0.00 | 0.00 | 45 | 978.9 |
| 20260507161518 | 50 | 310 | 4.0 | 6.0 | 0.00 | 0.00 | 0.00 | 46 | 978.9 |
| 20260507161018 | 50 | 326 | 4.0 | 6.0 | 0.00 | 0.00 | 0.00 | 46 | 978.9 |
| 20260507160517 | 50 | 260 | 4.0 | 7.0 | 0.00 | 0.00 | 0.00 | 46 | 978.9 |
| 20260507160017 | 50 | 255 | 7.0 | 8.0 | 0.00 | 0.00 | 0.00 | 45 | 979.0 |
| 20260507155517 | 50 | 279 | 6.0 | 7.0 | 0.00 | 0.00 | 0.00 | 44 | 979.0 |
| 20260507155017 | 50 | 312 | 5.0 | 8.0 | 0.00 | 0.00 | 0.00 | 45 | 979.0 |
| 20260507154517 | 51 | 295 | 6.0 | 9.0 | 0.00 | 0.00 | 0.00 | 44 | 979.0 |
| 20260507154016 | 51 | 281 | 6.0 | 10.0 | 0.00 | 0.00 | 0.00 | 44 | 979.0 |
| 20260507153516 | 50 | 261 | 6.0 | 8.0 | 0.00 | 0.00 | 0.00 | 45 | 979.0 |
| 20260507153016 | 50 | 343 | 5.0 | 7.0 | 0.00 | 0.00 | 0.00 | 44 | 979.0 |
| 20260507152516 | 50 | 279 | 6.0 | 12.0 | 0.00 | 0.00 | 0.00 | 45 | 979.0 |
| 20260507152016 | 51 | 315 | 6.0 | 8.0 | 0.00 | 0.00 | 0.00 | 46 | 979.0 |
| 20260507150955 | 50 | 309 | 3.0 | 5.0 | 0.00 | 0.00 | 0.00 | 48 | 979.0 |
| 20260507150454 | 49 | 299 | 6.0 | 8.0 | 0.00 | 0.00 | 0.00 | 49 | 979.1 |
| 20260507145954 | 50 | 265 | 4.0 | 7.0 | 0.00 | 0.00 | 0.00 | 47 | 979.1 |
| 20260507145454 | 49 | 237 | 2.0 | 4.0 | 0.00 | 0.00 | 0.00 | 48 | 979.1 |
| 20260507144953 | 49 | 260 | 4.0 | 7.0 | 0.00 | 0.00 | 0.00 | 49 | 979.1 |
| 20260507144453 | 49 | 326 | 6.0 | 9.0 | 0.00 | 0.00 | 0.00 | 47 | 979.1 |
| 20260507143431 | 48 | 28 | 3.0 | 6.0 | 0.00 | 0.00 | 0.00 | 53 | 979.3 |
| 20260507142931 | 48 | 340 | 4.0 | 7.0 | 0.00 | 0.00 | 0.00 | 55 | 979.3 |
| 20260507142431 | 48 | 14 | 1.0 | 3.0 | 0.00 | 0.00 | 0.00 | 54 | 979.4 |
| 20260507141931 | 48 | 304 | 5.0 | 8.0 | 0.00 | 0.00 | 0.00 | 55 | 979.4 |
| 20260507141431 | 48 | 285 | 3.0 | 4.0 | 0.00 | 0.00 | 0.00 | 58 | 979.5 |
| 20260507140931 | 47 | 22 | 3.0 | 5.0 | 0.00 | 0.00 | 0.00 | 59 | 979.5 |
| 20260507135909 | 47 | 20 | 5.0 | 7.0 | 0.00 | 0.00 | 0.00 | 58 | 979.6 |
| 20260507135409 | 47 | 341 | 4.0 | 6.0 | 0.00 | 0.00 | 0.00 | 58 | 979.6 |
| 20260507134909 | 47 | 305 | 4.0 | 7.0 | 0.00 | 0.00 | 0.00 | 59 | 979.6 |
| 20260507134408 | 46 | 353 | 4.0 | 5.0 | 0.00 | 0.00 | 0.00 | 60 | 979.6 |
| 20260507133908 | 46 | 347 | 3.0 | 5.0 | 0.00 | 0.00 | 0.00 | 60 | 979.7 |
| 20260507132325 | 45 | 259 | 5.0 | 6.0 | 0.00 | 0.00 | 0.00 | 64 | 979.8 |
| 20260507131825 | 45 | 240 | 2.0 | 4.0 | 0.00 | 0.00 | 0.00 | 64 | 979.8 |
| 20260507131324 | 44 | 191 | 3.0 | 4.0 | 0.00 | 0.00 | 0.00 | 65 | 979.8 |
| 20260507130823 | 43 | 263 | 3.0 | 3.0 | 0.00 | 0.00 | 0.00 | 66 | 979.8 |
| 20260507130323 | 43 | 235 | 3.0 | 3.0 | 0.00 | 0.00 | 0.00 | 66 | 979.9 |
| 20260507125823 | 43 | 240 | 2.0 | 3.0 | 0.00 | 0.00 | 0.00 | 67 | 979.9 |
| 20260507125323 | 42 | 230 | 2.0 | 2.0 | 0.00 | 0.00 | 0.00 | 67 | 979.8 |
| 20260507124823 | 42 | 257 | 2.0 | 3.0 | 0.00 | 0.00 | 0.00 | 68 | 979.8 |
| 20260507124322 | 42 | 188 | 1.0 | 2.0 | 0.00 | 0.00 | 0.00 | 69 | 979.9 |
| 20260507123822 | 41 | 249 | 2.0 | 3.0 | 0.00 | 0.00 | 0.00 | 69 | 979.9 |
| 20260507123322 | 41 | 236 | 1.0 | 2.0 | 0.00 | 0.00 | 0.00 | 70 | 979.8 |
| 20260507122822 | 40 | 215 | 1.0 | 2.0 | 0.00 | 0.00 | 0.00 | 70 | 979.8 |
| 20260507122322 | 40 | 195 | 2.0 | 3.0 | 0.00 | 0.00 | 0.00 | 70 | 979.9 |
| 20260507121823 | 40 | 0 | 0.0 | 0.0 | 0.00 | 0.00 | 0.00 | 72 | 979.9 |
| 20260507121322 | 40 | 144 | 3.0 | 4.0 | 0.00 | 0.00 | 0.00 | 71 | 979.9 |
| 20260507120822 | 39 | 197 | 3.0 | 3.0 | 0.00 | 0.00 | 0.00 | 71 | 979.9 |
| 20260507115800 | 39 | 208 | 2.0 | 3.0 | 0.00 | 0.00 | 0.00 | 71 | 979.9 |
| 20260507115300 | 39 | 177 | 2.0 | 3.0 | 0.00 | 0.00 | 0.00 | 72 | 979.8 |
| 20260507114800 | 39 | 184 | 2.0 | 3.0 | 0.00 | 0.00 | 0.00 | 71 | 979.7 |
| 20260507113739 | 38 | 151 | 3.0 | 4.0 | 0.00 | 0.00 | 0.00 | 72 | 979.7 |
| 20260507113239 | 38 | 142 | 2.0 | 3.0 | 0.00 | 0.00 | 0.00 | 72 | 979.6 |
| 20260507112739 | 38 | 150 | 1.0 | 2.0 | 0.00 | 0.00 | 0.00 | 73 | 979.6 |
| 20260507112238 | 38 | 191 | 2.0 | 3.0 | 0.00 | 0.00 | 0.00 | 72 | 979.6 |
| 20260507111217 | 38 | 193 | 2.0 | 3.0 | 0.00 | 0.00 | 0.00 | 72 | 979.5 |
| 20260507110717 | 37 | 175 | 3.0 | 4.0 | 0.00 | 0.00 | 0.00 | 72 | 979.5 |
| 20260507110217 | 37 | 177 | 2.0 | 3.0 | 0.00 | 0.00 | 0.00 | 72 | 979.5 |
| 20260507105716 | 36 | 183 | 3.0 | 4.0 | 0.00 | 0.00 | 0.00 | 73 | 979.5 |
| 20260507105216 | 35 | 186 | 3.0 | 4.0 | 0.00 | 0.00 | 0.00 | 74 | 979.4 |
| 20260507104716 | 35 | 203 | 2.0 | 2.0 | 0.00 | 0.00 | 0.00 | 75 | 979.5 |
| 20260507103655 | 34 | 190 | 2.0 | 3.0 | 0.00 | 0.00 | 0.00 | 77 | 979.5 |
| 20260507103155 | 34 | 215 | 1.0 | 2.0 | 0.00 | 0.00 | 0.00 | 77 | 979.5 |
| 20260507102133 | 35 | 214 | 1.0 | 2.0 | 0.00 | 0.00 | 0.00 | 76 | 979.5 |
| 20260507101633 | 35 | 171 | 1.0 | 2.0 | 0.00 | 0.00 | 0.00 | 75 | 979.5 |
| 20260507100612 | 36 | 249 | 2.0 | 3.0 | 0.00 | 0.00 | 0.00 | 74 | 979.4 |
| 20260507100112 | 36 | 141 | 3.0 | 4.0 | 0.00 | 0.00 | 0.00 | 74 | 979.4 |
| 20260507095051 | 36 | 225 | 1.0 | 2.0 | 0.00 | 0.00 | 0.00 | 74 | 979.4 |
| 20260507094550 | 36 | 190 | 1.0 | 3.0 | 0.00 | 0.00 | 0.00 | 74 | 979.4 |
| 20260507094050 | 36 | 0 | 0.0 | 0.0 | 0.00 | 0.00 | 0.00 | 74 | 979.4 |
| 20260507093550 | 36 | 140 | 1.0 | 1.0 | 0.00 | 0.00 | 0.00 | 75 | 979.4 |
| 20260507093049 | 36 | 188 | 1.0 | 2.0 | 0.00 | 0.00 | 0.00 | 75 | 979.5 |
| 20260507092549 | 36 | 183 | 1.0 | 3.0 | 0.00 | 0.00 | 0.00 | 75 | 979.5 |
| 20260507092048 | 36 | 216 | 2.0 | 3.0 | 0.00 | 0.00 | 0.00 | 75 | 979.5 |
| 20260507091548 | 36 | 216 | 2.0 | 2.0 | 0.00 | 0.00 | 0.00 | 74 | 979.5 |
| 20260507091048 | 36 | 211 | 1.0 | 2.0 | 0.00 | 0.00 | 0.00 | 75 | 979.5 |
| 20260507090548 | 37 | 0 | 0.0 | 0.0 | 0.00 | 0.00 | 0.00 | 74 | 979.6 |
| 20260507085527 | 37 | 154 | 1.0 | 1.0 | 0.00 | 0.00 | 0.00 | 73 | 979.7 |
| 20260507085027 | 38 | 197 | 2.0 | 3.0 | 0.00 | 0.00 | 0.00 | 73 | 979.8 |
| 20260507084526 | 38 | 164 | 1.0 | 2.0 | 0.00 | 0.00 | 0.00 | 73 | 979.7 |
| 20260507084026 | 38 | 0 | 0.0 | 0.0 | 0.00 | 0.00 | 0.00 | 73 | 979.7 |
| 20260507083005 | 39 | 42 | 1.0 | 2.0 | 0.00 | 0.00 | 0.00 | 73 | 979.8 |
| 20260507081944 | 39 | 0 | 0.0 | 0.0 | 0.00 | 0.00 | 0.00 | 73 | 979.6 |
| 20260507081444 | 39 | 120 | 0.0 | 1.0 | 0.00 | 0.00 | 0.00 | 73 | 979.6 |
| 20260507080943 | 39 | 154 | 1.0 | 2.0 | 0.00 | 0.00 | 0.00 | 74 | 979.6 |
| 20260507080443 | 39 | 115 | 1.0 | 3.0 | 0.00 | 0.00 | 0.00 | 75 | 979.8 |
| 20260507075943 | 39 | 231 | 1.0 | 1.0 | 0.00 | 0.00 | 0.00 | 75 | 979.7 |
| 20260507074400 | 40 | 0 | 0.0 | 0.0 | 0.00 | 0.00 | 0.00 | 73 | 979.7 |
| 20260507073900 | 41 | 0 | 0.0 | 0.0 | 0.00 | 0.00 | 0.00 | 73 | 979.7 |
| 20260507073400 | 41 | 0 | 0.0 | 0.0 | 0.00 | 0.00 | 0.00 | 73 | 979.7 |
| 20260507072859 | 41 | 0 | 0.0 | 0.0 | 0.00 | 0.00 | 0.00 | 72 | 979.7 |
| 20260507072359 | 41 | 286 | 1.0 | 2.0 | 0.00 | 0.00 | 0.00 | 72 | 979.7 |
| 20260507071859 | 41 | 0 | 0.0 | 0.0 | 0.00 | 0.00 | 0.00 | 71 | 979.7 |
| 20260507071358 | 41 | 333 | 2.0 | 4.0 | 0.00 | 0.00 | 0.00 | 71 | 979.8 |
| 20260507070858 | 41 | 325 | 2.0 | 3.0 | 0.00 | 0.00 | 0.00 | 71 | 979.7 |
| 20260507070358 | 41 | 330 | 2.0 | 2.0 | 0.00 | 0.00 | 0.00 | 71 | 979.7 |
| 20260507065858 | 41 | 0 | 0.0 | 0.0 | 0.00 | 0.00 | 0.00 | 71 | 979.8 |
| 20260507065358 | 41 | 338 | 2.0 | 3.0 | 0.00 | 0.00 | 0.00 | 70 | 979.8 |
| 20260507064856 | 41 | 335 | 2.0 | 3.0 | 0.00 | 0.00 | 0.00 | 70 | 979.8 |
| 20260507064356 | 42 | 342 | 2.0 | 4.0 | 0.00 | 0.00 | 0.00 | 70 | 979.7 |
| 20260507063855 | 42 | 352 | 3.0 | 5.0 | 0.00 | 0.00 | 0.00 | 70 | 979.7 |
| 20260507063355 | 42 | 0 | 0.0 | 0.0 | 0.00 | 0.00 | 0.00 | 70 | 979.7 |
| 20260507062855 | 42 | 342 | 3.0 | 5.0 | 0.00 | 0.00 | 0.00 | 69 | 979.7 |
| 20260507061834 | 42 | 343 | 2.0 | 3.0 | 0.00 | 0.00 | 0.00 | 70 | 979.5 |
| 20260507061334 | 43 | 288 | 2.0 | 2.0 | 0.00 | 0.00 | 0.00 | 70 | 979.5 |
| 20260507060833 | 43 | 270 | 2.0 | 2.0 | 0.00 | 0.00 | 0.00 | 70 | 979.5 |
| 20260507060333 | 43 | 256 | 2.0 | 3.0 | 0.00 | 0.00 | 0.00 | 69 | 979.4 |
| 20260507055311 | 43 | 248 | 3.0 | 5.0 | 0.00 | 0.00 | 0.00 | 69 | 979.4 |
| 20260507054811 | 42 | 262 | 5.0 | 7.0 | 0.00 | 0.00 | 0.00 | 70 | 979.5 |
| 20260507054311 | 42 | 260 | 2.0 | 4.0 | 0.00 | 0.00 | 0.00 | 70 | 979.6 |
| 20260507053811 | 42 | 234 | 1.0 | 3.0 | 0.00 | 0.00 | 0.00 | 70 | 979.6 |
| 20260507053311 | 43 | 245 | 3.0 | 6.0 | 0.00 | 0.00 | 0.00 | 69 | 979.6 |
| 20260507052811 | 42 | 241 | 1.0 | 2.0 | 0.00 | 0.00 | 0.00 | 69 | 979.7 |
| 20260507052310 | 42 | 236 | 3.0 | 5.0 | 0.00 | 0.00 | 0.00 | 69 | 979.8 |
| 20260507051810 | 42 | 191 | 2.0 | 4.0 | 0.00 | 0.00 | 0.00 | 69 | 979.8 |
| 20260507050750 | 42 | 254 | 2.0 | 3.0 | 0.00 | 0.00 | 0.00 | 67 | 979.9 |
| 20260507050248 | 42 | 209 | 1.0 | 3.0 | 0.00 | 0.00 | 0.00 | 67 | 979.9 |
| 20260507045748 | 42 | 231 | 3.0 | 6.0 | 0.00 | 0.00 | 0.00 | 66 | 979.9 |
| 20260507045249 | 43 | 194 | 1.0 | 1.0 | 0.00 | 0.00 | 0.00 | 66 | 979.9 |
| 20260507044748 | 43 | 240 | 2.0 | 5.0 | 0.00 | 0.00 | 0.00 | 65 | 980.0 |
| 20260507044248 | 43 | 213 | 1.0 | 2.0 | 0.00 | 0.00 | 0.00 | 64 | 980.0 |
| 20260507043747 | 43 | 246 | 3.0 | 5.0 | 0.00 | 0.00 | 0.00 | 63 | 980.0 |
| 20260507043247 | 43 | 215 | 2.0 | 2.0 | 0.00 | 0.00 | 0.00 | 62 | 980.1 |
| 20260507042225 | 42 | 237 | 2.0 | 2.0 | 0.00 | 0.00 | 0.00 | 63 | 980.1 |
| 20260507041724 | 42 | 228 | 2.0 | 3.0 | 0.00 | 0.00 | 0.00 | 64 | 980.2 |
| 20260507041224 | 42 | 201 | 1.0 | 2.0 | 0.00 | 0.00 | 0.00 | 66 | 980.1 |
| 20260507040202 | 42 | 208 | 1.0 | 2.0 | 0.00 | 0.00 | 0.00 | 65 | 980.1 |
| 20260507035702 | 42 | 233 | 1.0 | 3.0 | 0.00 | 0.00 | 0.00 | 65 | 980.1 |
| 20260507035201 | 42 | 0 | 0.0 | 0.0 | 0.00 | 0.00 | 0.00 | 67 | 980.2 |
| 20260507034701 | 42 | 221 | 1.0 | 2.0 | 0.00 | 0.00 | 0.00 | 68 | 980.2 |
| 20260507033639 | 41 | 0 | 0.0 | 0.0 | 0.00 | 0.00 | 0.00 | 66 | 980.1 |
| 20260507033139 | 41 | 220 | 1.0 | 2.0 | 0.00 | 0.00 | 0.00 | 65 | 980.2 |
| 20260507032116 | 41 | 0 | 0.0 | 0.0 | 0.00 | 0.00 | 0.00 | 68 | 980.2 |
| 20260507031615 | 41 | 0 | 0.0 | 0.0 | 0.00 | 0.00 | 0.00 | 67 | 980.3 |
| 20260507031115 | 41 | 0 | 0.0 | 0.0 | 0.00 | 0.00 | 0.00 | 68 | 980.3 |
| 20260507030054 | 41 | 0 | 0.0 | 0.0 | 0.00 | 0.00 | 0.00 | 67 | 980.4 |
| 20260507025554 | 41 | 0 | 0.0 | 0.0 | 0.00 | 0.00 | 0.00 | 67 | 980.3 |
| 20260507025053 | 41 | 0 | 0.0 | 0.0 | 0.00 | 0.00 | 0.00 | 67 | 980.3 |
| 20260507024030 | 41 | 0 | 0.0 | 0.0 | 0.00 | 0.00 | 0.00 | 65 | 980.2 |
| 20260507023530 | 41 | 193 | 1.0 | 2.0 | 0.00 | 0.00 | 0.00 | 64 | 980.2 |
| 20260507022507 | 41 | 0 | 0.0 | 0.0 | 0.00 | 0.00 | 0.00 | 65 | 980.3 |
| 20260507021445 | 41 | 0 | 0.0 | 0.0 | 0.00 | 0.00 | 0.00 | 66 | 980.3 |
| 20260507020945 | 41 | 0 | 0.0 | 0.0 | 0.00 | 0.00 | 0.00 | 63 | 980.2 |
| 20260507015402 | 41 | 0 | 0.0 | 0.0 | 0.00 | 0.00 | 0.00 | 64 | 980.3 |
| 20260507014902 | 42 | 0 | 0.0 | 0.0 | 0.00 | 0.00 | 0.00 | 63 | 980.2 |
| 20260507013840 | 42 | 0 | 0.0 | 0.0 | 0.00 | 0.00 | 0.00 | 59 | 980.2 |
| 20260507012819 | 42 | 215 | 0.0 | 1.0 | 0.00 | 0.00 | 0.00 | 60 | 980.2 |
| 20260507012319 | 43 | 0 | 0.0 | 0.0 | 0.00 | 0.00 | 0.00 | 59 | 980.2 |
| 20260507011818 | 43 | 0 | 0.0 | 0.0 | 0.00 | 0.00 | 0.00 | 60 | 980.2 |
| 20260507011317 | 43 | 0 | 0.0 | 0.0 | 0.00 | 0.00 | 0.00 | 59 | 980.3 |
| 20260507010256 | 44 | 255 | 1.0 | 2.0 | 0.00 | 0.00 | 0.00 | 55 | 980.4 |
| 20260507005756 | 44 | 229 | 1.0 | 2.0 | 0.00 | 0.00 | 0.00 | 53 | 980.3 |
| 20260507005256 | 44 | 219 | 2.0 | 2.0 | 0.00 | 0.00 | 0.00 | 52 | 980.3 |
| 20260507004755 | 44 | 238 | 1.0 | 2.0 | 0.00 | 0.00 | 0.00 | 51 | 980.2 |
| 20260507004255 | 45 | 246 | 2.0 | 2.0 | 0.00 | 0.00 | 0.00 | 50 | 980.3 |
| 20260507003755 | 45 | 269 | 1.0 | 2.0 | 0.00 | 0.00 | 0.00 | 50 | 980.2 |
| 20260507003254 | 45 | 262 | 2.0 | 2.0 | 0.00 | 0.00 | 0.00 | 49 | 980.1 |
| 20260507002754 | 46 | 258 | 1.0 | 2.0 | 0.00 | 0.00 | 0.00 | 48 | 980.1 |
| 20260507002254 | 46 | 275 | 1.0 | 1.0 | 0.00 | 0.00 | 0.00 | 47 | 980.0 |
| 20260507001754 | 46 | 310 | 2.0 | 3.0 | 0.00 | 0.00 | 0.00 | 47 | 980.0 |
| 20260507001254 | 46 | 302 | 2.0 | 3.0 | 0.00 | 0.00 | 0.00 | 45 | 979.9 |
| 20260507000754 | 47 | 325 | 2.0 | 3.0 | 0.00 | 0.00 | 0.00 | 44 | 979.8 |
| 20260507000253 | 47 | 332 | 4.0 | 5.0 | 0.00 | 0.00 | 0.00 | 43 | 979.7 |
| 20260506235231 | 48 | 338 | 3.0 | 5.0 | 0.00 | 0.00 | 0.00 | 43 | 979.7 |
| 20260506233649 | 47 | 326 | 4.0 | 6.0 | 0.00 | 0.00 | 0.00 | 42 | 979.8 |
| 20260506233148 | 47 | 334 | 3.0 | 5.0 | 0.00 | 0.00 | 0.00 | 42 | 979.8 |
| 20260506232647 | 48 | 333 | 6.0 | 7.0 | 0.00 | 0.00 | 0.00 | 41 | 979.7 |
| 20260506231626 | 48 | 10 | 4.0 | 9.0 | 0.00 | 0.00 | 0.00 | 41 | 979.8 |